Tracking 20712 objects as of 28-May-2020
HD Live streaming from Space Station
objects crossing your sky now

COSMOS 931 DEB

Track COSMOS 931 DEB now!


NORAD ID: 14000
Int'l Code: 1977-068G
Perigee: 6,068.3 km
Apogee: 34,285.8 km
Inclination: 69.2 °
Period: 717.5 minutes
Semi major axis: 26548 km
RCS: 0.3307 m2 (medium)
Launch date: July 20, 1977
Source: Commonwealth of Independent States (former USSR) (CIS)
Launch site: PLESETSK MISSILE AND SPACE COMPLEX (PKMTR)

Note: This is SATELLITE DEBRIS
aabbcc
Your satellite tracking list
Your tracking list is empty




NASA's NSSDC Master Catalog

Two Line Element Set (TLE):
1 14000U 77068G   16187.57980090 -.00000553 +00000-0 +00000-0 0  9998
2 14000 069.1801 256.8568 5314424 064.4427 333.7590 02.00703237261926
Source of the keplerian elements: AFSPC